[[[{"header":{"parameterUnit":"kt","parameterCategory":2,"dx":1,"dy":1,"la1":30.253999710083008,"la2":30.299108505249023,"lo1":-89.0895004272461,"lo2":-89.04439544677734,"nx":28,"ny":28,"refTime":"2022-09-18T21:00:00:Z","depth":0,"parameterNumber":1,"parameterNumberName":"U-component_of_WINDS"},"data":[-5.5772,-5.5864,-5.581,-5.5893,-5.5858,-5.5906,-5.5906,-5.5901,-5.5884,-5.5938,-5.596,-5.5916,-5.5879,-5.5896,-5.5919,-5.5899,-5.5914,-5.599,-5.5954,-5.5662,-5.5619,-5.5577,-5.555,-5.5993,-5.5994,-5.6264,-5.6266,-5.6268,-5.5576,-5.5541,-5.5567,-5.5554,-5.5578,-5.5473,-5.5456,-5.5483,-5.5529,-5.5508,-5.5524,-5.5568,-5.5596,-5.553,-5.5549,-5.5596,-5.5548,-5.5605,-5.5601,-5.5598,-5.5284,-5.5256,-5.5644,-5.5644,-5.5644,-5.5644,-5.5644,-5.5643,-5.5202,-5.5259,-5.5217,-5.5243,-5.5221,-5.5215,-5.526,-5.5201,-5.5227,-5.5234,-5.5162,-5.5214,-5.5182,-5.5174,-5.5158,-5.52,-5.5126,-5.5171,-5.5183,-5.5197,-5.5221,-5.4847,-5.52,-5.5198,-5.5197,-5.5196,-5.5195,0,-5.4911,-5.486,-5.4877,-5.4881,-5.4897,-5.4893,-5.4881,-5.4907,-5.4778,-5.4805,-5.4839,-5.4849,-5.4872,-5.49,-5.4903,-5.4874,-5.4768,-5.475,-5.4781,-5.4818,-5.4854,-5.484,-5.4335,-5.4739,-5.4735,-5.4732,-5.473,-5.4728,-5.4533,-5.4603,-5.4528,-5.4549,-5.4525,-5.4561,-5.4571,-5.4449,-5.4466,-5.4433,-5.4491,-5.4515,-5.4527,-5.4594,-5.4523,-5.4541,-5.4489,-5.4651,-5.449,-5.4525,-5.4495,-5.4493,-5.4502,-5.4684,-5.469,-5.4694,-5.4698,0,-5.4326,-5.4227,-5.4317,-5.4234,-5.4215,-5.4297,-5.4227,-5.4279,-5.4212,-5.4276,-5.4283,-5.4181,-5.4216,-5.4117,-5.4138,-5.4086,-5.423,-5.4177,-5.4242,-5.4227,-5.4364,-5.4354,-5.4818,-5.4875,-5.4411,-5.4416,-5.4419,0,-5.3965,-5.4061,-5.3909,-5.3965,-5.4071,-5.3942,-5.405,-5.4002,-5.3966,-5.4014,-5.3873,-5.3922,-5.3785,-5.3822,-5.3744,-5.3843,-5.3845,-5.3812,-5.3791,-5.3826,-5.3831,-5.3833,-5.3813,-5.3734,-5.3732,-5.373,-5.3728,0,-5.3652,-5.3679,-5.3771,-5.3761,-5.3679,-5.3726,-5.3695,-5.365,-5.366,-5.3657,-5.3662,-5.3669,-5.3673,-5.3682,-5.3582,-5.3478,-5.3698,-5.3533,-5.3664,-5.3668,-5.3718,-5.3716,-5.4152,-5.3725,-5.3725,-5.3724,-5.3723,0,-5.3343,-5.3336,-5.3482,-5.341,-5.3422,-5.3483,-5.3477,-5.3504,-5.3468,-5.342,-5.3417,-5.3309,-5.3382,-5.3227,-5.3328,-5.3221,-5.3235,-5.3208,-5.3215,-5.3216,-5.3045,-5.3308,-5.3731,-5.3772,-5.322,-5.3215,-5.3211,0,-5.3015,-5.3131,-5.3018,-5.3159,-5.3198,-5.3034,-5.3099,-5.3068,-5.3009,-5.3037,-5.2973,-5.3005,-5.2867,-5.2863,-5.2926,-5.2862,-5.3002,-5.284,-5.2889,-5.2893,-5.2906,-5.3293,-5.3382,-5.3649,-5.3156,-5.3162,-5.3166,0,-5.2745,-5.2637,-5.2669,-5.2652,-5.2585,-5.2616,-5.269,-5.269,-5.2715,-5.2694,-5.2755,-5.2795,-5.2694,-5.2687,-5.2598,-5.267,-5.2904,-5.2551,-5.2548,-5.2621,-5.3117,-5.3202,-5.3247,-5.2829,-5.2836,-5.2841,-5.3122,0,-5.2308,-5.2349,-5.2431,-5.2393,-5.2399,-5.2478,-5.2362,-5.2386,-5.2298,-5.2232,-5.2317,-5.2262,-5.2263,-5.2284,-5.2199,-5.2391,-5.2343,-5.2233,-5.2074,-5.2328,-5.2418,-5.2455,-5.195,-5.1945,-5.194,-5.1936,0,0,-5.202,-5.2074,-5.1942,-5.2004,-5.2001,-5.1825,-5.1921,-5.1898,-5.1855,-5.1859,-5.1769,-5.1818,-5.1776,-5.1892,-5.1962,-5.1961,-5.1987,-5.19,-5.2207,-5.2238,-5.2266,-5.2365,-5.2404,-5.1928,-5.1927,-5.1925,-5.1924,0,-5.1833,-5.1788,-5.188,-5.1849,-5.1797,-5.1719,-5.1743,-5.166,-5.1621,-5.1699,-5.1554,-5.1591,-5.163,-5.1607,-5.16,-5.1883,-5.1772,-5.1892,-5.2084,-5.2166,-5.2203,-5.2235,-5.2339,-5.2378,-5.1913,-5.1913,-5.1914,0,-5.1549,-5.1486,-5.1516,-5.1495,-5.1458,-5.1501,-5.1305,-5.1357,-5.1388,-5.1191,-5.1271,-5.1225,-5.1181,-5.1303,-5.1353,-5.1273,-5.1584,-5.1463,-5.1488,-5.1491,-5.1564,-5.1609,-5.1648,-5.1129,-5.1127,-5.1125,0,0,-5.1405,-5.1439,-5.133,-5.1445,-5.1433,-5.1316,-5.1325,-5.1236,-5.1197,-5.1183,-5.1118,-5.1088,-5.111,-5.1127,-5.114,-5.129,-5.1273,-5.1371,-5.1408,-5.1438,-5.1459,-5.154,-5.1584,-5.1117,-5.1116,-5.1116,0,0,-5.1335,-5.1211,-5.1127,-5.1245,-5.1213,-5.1113,-5.119,-5.1085,-5.1083,-5.1061,-5.0915,-5.09,-5.1011,-5.097,-5.087,-5.1082,-5.0927,-5.0948,-5.1104,-5.1149,-5.1185,-5.1193,-5.0661,0,0,0,0,0,-5.1082,-5.1226,-5.1151,-5.1153,-5.1123,-5.1155,-5.1151,-5.1031,-5.0924,-5.0989,-5.0919,-5.0796,-5.0886,-5.0794,-5.08,-5.0913,-5.1007,-5.1026,-5.1045,-5.128,-5.1328,-5.1369,0,0,0,0,0,0,-5.1081,-5.1084,-5.1147,-5.1055,-5.1047,-5.1149,-5.0942,-5.0913,-5.0914,-5.089,-5.0813,-5.0793,-5.0693,-5.0783,-5.079,-5.09,-5.0658,-5.1014,-5.1031,-5.1046,-5.1297,-5.1336,-5.137,0,0,0,0,0,-5.108,-5.1082,-5.1064,-5.1052,-5.1045,-5.0921,-5.0935,-5.091,-5.0908,-5.0798,-5.0773,-5.0818,-5.07,-5.0697,-5.0787,-5.09,-5.0653,-5.0656,-5.1025,-5.1038,-5.105,-5.1316,0,0,0,0,0,0,-5.1079,-5.106,-5.106,-5.1054,-5.0986,-5.0912,-5.0896,-5.0907,-5.0813,-5.0792,-5.0794,-5.0776,-5.0706,-5.0703,-5.0702,-5.0907,-5.0648,-5.0651,-5.0653,-5.1035,-5.1045,-5.1054,0,0,0,0,0,0,-5.1058,-5.1056,-5.1057,-5.0981,-5.0964,-5.0906,-5.0892,-5.0949,-5.0815,-5.0815,-5.0796,-5.0787,-5.0708,-5.0708,-5.0706,-5.0801,-5.0644,-5.0647,-5.0649,-5.0651,-5.1043,-5.1051,0,0,0,0,0,0,-5.1055,-5.1053,-5.0981,-5.0969,-5.0954,-5.0873,-5.0954,-5.0931,-5.0747,-5.0822,-5.0728,-5.0719,-5.0717,-5.0713,-5.0711,-5.0806,-5.0802,-5.0644,-5.0646,-5.0648,-5.0649,0,0,0,0,0,0,0,-5.1052,-5.1094,-5.1098,-5.096,-5.0946,-5.0995,-5.0993,-5.0991,-5.0745,-5.0738,-5.073,-5.0722,-5.0627,-5.0631,-5.0634,-5.0811,0,0,-5.0644,-5.0646,0,0,0,0,0,0,0,0,-5.1092,-5.1093,-5.1098,-5.1097,-5.1095,-5.0995,-5.0993,-5.0992,-5.0744,-5.0738,-5.0731,-5.0725,-5.0628,-5.0631,-5.0634,0,0,0,0,0,0,0,0,0,0,0,0,0,0,0,-5.1098,-5.1097,0,-5.0994,-5.0993,-5.0992,-5.0743,-5.0738,-5.0733,-5.0728,-5.0629,-5.0631,-5.0633,0,0,0,0,0,0,0,0,0,0,0,0,0,0,0,0,0,0,0,0,0,0,0,0,0,0,0,0,0,0,0,0,0,0,0,0,0,0,0,0,0,0,0,0,0,0,0,0,0,0,0,0,0,0,0,0,0,0,0,0,0,0,0,0,0,0,0,0,0]}],[{"header":{"parameterUnit":"kt","parameterCategory":2,"dx":1,"dy":1,"la1":30.253999710083008,"la2":30.299108505249023,"lo1":-89.0895004272461,"lo2":-89.04439544677734,"nx":28,"ny":28,"refTime":"2022-09-18T21:00:00:Z","depth":0,"parameterNumber":2,"parameterNumberName":"V-component_of_WINDS"},"data":[3.9295,3.9245,3.9288,3.925,3.9282,3.9262,3.9268,3.928,3.93,3.9279,3.9274,3.9309,3.9342,3.9344,3.9337,3.9352,3.9344,3.9297,3.9321,3.9501,3.9528,3.9554,3.9568,3.9296,3.9296,3.9128,3.9126,3.9125,3.9425,3.9457,3.9451,3.9472,3.9466,3.9539,3.9561,3.9549,3.9528,3.9552,3.9549,3.9532,3.9523,3.9573,3.957,3.9544,3.9574,3.9539,3.9538,3.9541,3.9737,3.9752,3.9515,3.9515,3.9515,3.9515,3.9515,3.9515,3.9674,3.9642,3.9681,3.9673,3.9696,3.9709,3.9685,3.9731,3.9722,3.9727,3.9778,3.9753,3.9782,3.9797,3.9811,3.9791,3.9836,3.9808,3.98,3.9791,3.9774,4.0006,3.9793,3.9794,3.9794,3.9795,3.9796,0,3.9867,3.9906,3.9901,3.991,3.9907,3.9916,3.9931,3.9918,4.0009,3.9997,3.9983,3.9981,3.9976,3.9964,3.997,3.999,4.0056,4.0069,4.0049,4.0021,3.9996,4.0004,4.0316,4.0073,4.0075,4.0077,4.0078,4.0079,4.0116,4.0075,4.0136,4.0127,4.0146,4.013,4.0128,4.0213,4.0206,4.0235,4.0201,4.0193,4.0189,4.0155,4.0202,4.0197,4.0227,4.013,4.0226,4.0204,4.022,4.0219,4.0214,4.0107,4.0103,4.01,4.0098,0,4.0251,4.0322,4.0271,4.0334,4.0349,4.03,4.0352,4.0323,4.0369,4.0334,4.033,4.04,4.0382,4.0447,4.0438,4.0471,4.0385,4.0419,4.0377,4.0385,4.03,4.0305,4.0024,3.999,4.0279,4.0276,4.0273,0,4.0488,4.043,4.0538,4.0504,4.0443,4.0529,4.0464,4.0498,4.0525,4.0498,4.0589,4.056,4.0648,4.0628,4.0677,4.0619,4.0618,4.0638,4.065,4.0626,4.0623,4.0616,4.0627,4.0686,4.0688,4.0689,4.069,0,4.0688,4.0679,4.0626,4.0634,4.0693,4.0666,4.0688,4.072,4.0715,4.0721,4.0719,4.0718,4.0715,4.0712,4.0774,4.0837,4.0707,4.0805,4.0726,4.0724,4.0687,4.0687,4.043,4.0692,4.0692,4.0692,4.0693,0,4.0887,4.0896,4.081,4.0861,4.0854,4.0819,4.0825,4.0811,4.0836,4.0866,4.087,4.0935,4.0893,4.0986,4.0927,4.0991,4.0983,4.0999,4.0995,4.0988,4.1088,4.0927,4.0681,4.0654,4.0992,4.0994,4.0996,0,4.1095,4.1028,4.1101,4.1016,4.0993,4.1097,4.1059,4.1079,4.1116,4.11,4.114,4.1118,4.1202,4.1203,4.1167,4.1204,4.1122,4.1218,4.1184,4.1181,4.1169,4.0945,4.0889,4.073,4.1029,4.1026,4.1023,0,4.1263,4.1338,4.1317,4.133,4.1373,4.1353,4.131,4.131,4.1295,4.1308,4.127,4.1245,4.1305,4.1306,4.1357,4.1315,4.118,4.1385,4.1386,4.1341,4.1052,4.1,4.0973,4.1223,4.122,4.1216,4.1049,0,4.1542,4.1517,4.1467,4.149,4.1487,4.1437,4.1508,4.1494,4.1547,4.1585,4.1533,4.1563,4.1557,4.1545,4.1593,4.1479,4.1506,4.157,4.1658,4.1513,4.1459,4.1437,4.1734,4.1737,4.174,4.1742,0,0,4.1719,4.1685,4.1766,4.1728,4.1729,4.1835,4.1776,4.1788,4.1809,4.1806,4.1859,4.1823,4.1843,4.177,4.173,4.1729,4.1713,4.176,4.1583,4.1565,4.1549,4.149,4.1467,4.1746,4.1747,4.1748,4.1749,0,4.1834,4.1862,4.1805,4.1823,4.1852,4.1897,4.1884,4.1929,4.195,4.1901,4.1983,4.1959,4.1927,4.1937,4.1938,4.1774,4.1833,4.1768,4.1655,4.1607,4.1585,4.1567,4.1504,4.1481,4.1755,4.1755,4.1754,0,4.2009,4.2046,4.2026,4.2037,4.2055,4.2028,4.2142,4.2108,4.2088,4.2198,4.2145,4.217,4.2189,4.2113,4.2081,4.2125,4.1938,4.201,4.1995,4.1991,4.1946,4.1921,4.1898,4.2198,4.2199,4.22,0,0,4.2098,4.2076,4.2139,4.2066,4.2073,4.2138,4.213,4.218,4.2198,4.2204,4.2236,4.2248,4.2231,4.2217,4.2203,4.2111,4.2118,4.2062,4.2041,4.2023,4.2009,4.196,4.1935,4.2205,4.2205,4.2205,0,0,4.2138,4.221,4.226,4.2185,4.2202,4.2254,4.2206,4.2267,4.2262,4.2274,4.2353,4.2359,4.2289,4.2308,4.2366,4.2235,4.2323,4.231,4.2224,4.2198,4.2178,4.2171,4.248,0,0,0,0,0,4.2291,4.2202,4.2247,4.2245,4.2254,4.2231,4.2232,4.2298,4.2359,4.232,4.2356,4.2422,4.2356,4.2409,4.2403,4.2336,4.2268,4.2256,4.2246,4.2113,4.2086,4.2063,0,0,0,0,0,0,4.2291,4.2288,4.2249,4.2298,4.2301,4.2235,4.2353,4.2369,4.2365,4.2379,4.2413,4.2423,4.2475,4.2416,4.241,4.2344,4.2482,4.2263,4.2254,4.2245,4.2104,4.2082,4.2062,0,0,0,0,0,4.2291,4.2289,4.2288,4.23,4.2302,4.2368,4.2357,4.2371,4.2369,4.2424,4.2436,4.2419,4.2471,4.2471,4.2413,4.2346,4.2487,4.2485,4.2257,4.225,4.2243,4.2093,0,0,0,0,0,0,4.2291,4.23,4.229,4.2293,4.2338,4.2373,4.2381,4.2373,4.2416,4.2427,4.2434,4.2444,4.2468,4.2468,4.2467,4.2342,4.2491,4.2488,4.2487,4.2251,4.2246,4.2241,0,0,0,0,0,0,4.2302,4.2302,4.2292,4.2337,4.2346,4.2377,4.2384,4.2343,4.2414,4.2423,4.2433,4.2438,4.2468,4.2465,4.2465,4.2399,4.2494,4.2491,4.249,4.2488,4.2247,4.2242,0,0,0,0,0,0,4.2303,4.2303,4.2337,4.2343,4.2351,4.239,4.2342,4.2347,4.2458,4.2419,4.2469,4.2474,4.2463,4.2464,4.2463,4.2396,4.2398,4.2494,4.2492,4.2491,4.249,0,0,0,0,0,0,0,4.2304,4.2288,4.2273,4.2348,4.2356,4.2321,4.2322,4.2323,4.2459,4.2463,4.2468,4.2472,4.2508,4.2505,4.2502,4.2395,0,0,4.2494,4.2493,0,0,0,0,0,0,0,0,4.2289,4.2288,4.2273,4.2273,4.2274,4.2322,4.2322,4.2323,4.246,4.2463,4.2467,4.247,4.2507,4.2505,4.2503,0,0,0,0,0,0,0,0,0,0,0,0,0,0,0,4.2273,4.2273,0,4.2322,4.2322,4.2323,4.246,4.2463,4.2466,4.2469,4.2506,4.2504,4.2503,0,0,0,0,0,0,0,0,0,0,0,0,0,0,0,0,0,0,0,0,0,0,0,0,0,0,0,0,0,0,0,0,0,0,0,0,0,0,0,0,0,0,0,0,0,0,0,0,0,0,0,0,0,0,0,0,0,0,0,0,0,0,0,0,0,0,0,0,0]}]]]